Time,TemperatureF,DewpointF,PressureIn,WindDirection,WindDirectionDegrees,WindSpeedMPH,WindSpeedGustMPH,Humidity,HourlyPrecipIn,Conditions,Clouds,dailyrainin,SolarRadiationWatts/m^2,SoftwareType,DateUTC
2013-09-10 00:12:00,54.0,52.0,-100.00,West,264,1.0,6.0,94,0.00,,,0.32,0.000000,,2013-09-10 07:12:00,
2013-09-10 00:21:00,54.0,52.0,-100.00,West,264,1.0,6.0,94,0.00,,,0.32,0.000000,,2013-09-10 07:21:00,
2013-09-10 00:32:00,54.0,52.0,-100.00,West,264,1.0,6.0,94,0.00,,,0.32,0.000000,,2013-09-10 07:32:00,
2013-09-10 01:12:00,51.0,50.0,-100.00,West,269,8.0,14.0,96,0.62,,,0.94,0.000000,,2013-09-10 08:12:00,
2013-09-10 01:22:00,51.0,50.0,-100.00,West,269,8.0,14.0,96,0.62,,,0.94,0.000000,,2013-09-10 08:22:00,
2013-09-10 01:32:00,51.0,50.0,-100.00,West,269,8.0,14.0,96,0.62,,,0.94,0.000000,,2013-09-10 08:32:00,
2013-09-10 02:11:00,51.0,48.0,-100.00,West,278,6.0,15.0,90,0.10,,,1.04,0.000000,,2013-09-10 09:11:00,
2013-09-10 02:21:00,51.0,48.0,-100.00,West,278,6.0,15.0,90,0.10,,,1.04,0.000000,,2013-09-10 09:21:00,
2013-09-10 02:33:00,51.0,48.0,-100.00,West,278,6.0,15.0,90,0.10,,,1.04,0.000000,,2013-09-10 09:33:00,
2013-09-10 03:13:00,53.0,47.0,-100.00,SSE,148,2.0,7.0,81,0.00,,,1.04,0.000000,,2013-09-10 10:13:00,
2013-09-10 03:23:00,53.0,47.0,-100.00,SSE,148,2.0,7.0,81,0.00,,,1.04,0.000000,,2013-09-10 10:23:00,
2013-09-10 03:33:00,53.0,47.0,-100.00,SSE,148,2.0,7.0,81,0.00,,,1.04,0.000000,,2013-09-10 10:33:00,
2013-09-10 04:12:00,52.0,48.0,-100.00,SW,236,3.0,6.0,86,0.00,,,1.04,0.000000,,2013-09-10 11:12:00,
2013-09-10 04:22:00,52.0,48.0,-100.00,SW,236,3.0,6.0,86,0.00,,,1.04,0.000000,,2013-09-10 11:22:00,
2013-09-10 04:33:00,52.0,48.0,-100.00,SW,236,3.0,6.0,86,0.00,,,1.04,0.000000,,2013-09-10 11:33:00,
2013-09-10 07:11:00,50.0,47.0,-100.00,West,259,6.0,10.0,91,-99.99,,,1.01,14.000000,,2013-09-10 14:11:00,
2013-09-10 07:21:00,50.0,47.0,-100.00,West,259,6.0,10.0,91,-99.99,,,1.01,14.000000,,2013-09-10 14:21:00,
2013-09-10 07:32:00,50.0,47.0,-100.00,West,259,6.0,10.0,91,-99.99,,,1.01,14.000000,,2013-09-10 14:32:00,
2013-09-10 08:11:00,59.0,52.0,-100.00,WSW,250,3.0,9.0,78,0.00,,,1.00,193.000000,,2013-09-10 15:11:00,
2013-09-10 08:22:00,59.0,52.0,-100.00,WSW,250,3.0,9.0,78,0.00,,,1.00,193.000000,,2013-09-10 15:22:00,
2013-09-10 08:34:00,59.0,52.0,-100.00,WSW,250,3.0,9.0,78,0.00,,,1.00,193.000000,,2013-09-10 15:34:00,
2013-09-10 09:13:00,64.0,54.0,-100.00,WSW,254,6.0,9.0,69,0.00,,,0.87,464.000000,,2013-09-10 16:13:00,
2013-09-10 09:23:00,64.0,54.0,-100.00,WSW,254,6.0,9.0,69,0.00,,,0.87,464.000000,,2013-09-10 16:23:00,
2013-09-10 09:33:00,64.0,54.0,-100.00,WSW,254,6.0,9.0,69,0.00,,,0.87,464.000000,,2013-09-10 16:33:00,
2013-09-10 10:12:00,67.0,55.0,-100.00,WSW,238,5.0,11.0,66,0.00,,,0.73,745.000000,,2013-09-10 17:12:00,
2013-09-10 10:23:00,67.0,55.0,-100.00,WSW,238,5.0,11.0,66,0.00,,,0.73,745.000000,,2013-09-10 17:23:00,
2013-09-10 10:33:00,67.0,55.0,-100.00,WSW,238,5.0,11.0,66,0.00,,,0.73,745.000000,,2013-09-10 17:33:00,
2013-09-10 11:12:00,69.0,56.0,-100.00,WSW,237,6.0,12.0,64,0.00,,,0.73,890.000000,,2013-09-10 18:12:00,
2013-09-10 11:21:00,69.0,56.0,-100.00,WSW,237,6.0,12.0,64,0.00,,,0.73,890.000000,,2013-09-10 18:21:00,
2013-09-10 11:32:00,69.0,56.0,-100.00,WSW,237,6.0,12.0,64,0.00,,,0.73,890.000000,,2013-09-10 18:32:00,
2013-09-10 12:11:00,70.0,58.0,-100.00,WSW,243,5.0,14.0,65,0.00,,,0.73,1034.000000,,2013-09-10 19:11:00,
2013-09-10 12:21:00,70.0,58.0,-100.00,WSW,243,5.0,14.0,65,0.00,,,0.73,1034.000000,,2013-09-10 19:21:00,
2013-09-10 12:32:00,70.0,58.0,-100.00,WSW,243,5.0,14.0,65,0.00,,,0.73,1034.000000,,2013-09-10 19:32:00,
2013-09-10 13:11:00,70.0,57.0,-100.00,WSW,247,4.0,10.0,63,0.00,,,0.73,980.000000,,2013-09-10 20:11:00,
2013-09-10 13:21:00,70.0,57.0,-100.00,WSW,247,4.0,10.0,63,0.00,,,0.73,980.000000,,2013-09-10 20:21:00,
2013-09-10 13:32:00,70.0,57.0,-100.00,WSW,247,4.0,10.0,63,0.00,,,0.73,980.000000,,2013-09-10 20:32:00,
2013-09-10 14:11:00,63.0,55.0,-100.00,SW,215,3.0,11.0,74,0.00,,,0.72,572.000000,,2013-09-10 21:11:00,
2013-09-10 14:23:00,63.0,55.0,-100.00,SW,215,3.0,11.0,74,0.00,,,0.72,572.000000,,2013-09-10 21:23:00,
2013-09-10 14:33:00,63.0,55.0,-100.00,SW,215,3.0,11.0,74,0.00,,,0.72,572.000000,,2013-09-10 21:33:00,
2013-09-10 15:13:00,61.0,53.0,-100.00,WSW,244,4.0,9.0,76,0.00,,,0.72,291.000000,,2013-09-10 22:13:00,
2013-09-10 15:24:00,61.0,53.0,-100.00,WSW,244,4.0,9.0,76,0.00,,,0.72,291.000000,,2013-09-10 22:24:00,
2013-09-10 15:33:00,61.0,53.0,-100.00,WSW,244,4.0,9.0,76,0.00,,,0.72,291.000000,,2013-09-10 22:33:00,
2013-09-10 16:13:00,63.0,51.0,-100.00,WSW,250,6.0,9.0,64,0.00,,,0.72,318.000000,,2013-09-10 23:13:00,
2013-09-10 16:22:00,63.0,51.0,-100.00,WSW,250,6.0,9.0,64,0.00,,,0.72,318.000000,,2013-09-10 23:22:00,
2013-09-10 16:34:00,63.0,51.0,-100.00,WSW,250,6.0,9.0,64,0.00,,,0.72,318.000000,,2013-09-10 23:34:00,
2013-09-10 17:11:00,68.0,54.0,-100.00,WSW,241,4.0,12.0,60,0.00,,,0.72,494.000000,,2013-09-11 00:11:00,
2013-09-10 17:22:00,68.0,54.0,-100.00,WSW,241,4.0,12.0,60,0.00,,,0.72,494.000000,,2013-09-11 00:22:00,
2013-09-10 17:32:00,68.0,54.0,-100.00,WSW,241,4.0,12.0,60,0.00,,,0.72,494.000000,,2013-09-11 00:32:00,
2013-09-10 18:11:00,63.0,53.0,-100.00,WSW,254,6.0,12.0,69,0.00,,,0.72,350.000000,,2013-09-11 01:11:00,
2013-09-10 18:21:00,63.0,53.0,-100.00,WSW,254,6.0,12.0,69,0.00,,,0.72,350.000000,,2013-09-11 01:21:00,
2013-09-10 18:32:00,63.0,53.0,-100.00,WSW,254,6.0,12.0,69,0.00,,,0.72,350.000000,,2013-09-11 01:32:00,
2013-09-10 19:11:00,57.0,52.0,-100.00,WSW,258,3.0,8.0,82,0.00,,,0.72,85.000000,,2013-09-11 02:11:00,
2013-09-10 19:22:00,57.0,52.0,-100.00,WSW,258,3.0,8.0,82,0.00,,,0.72,85.000000,,2013-09-11 02:22:00,
2013-09-10 19:32:00,57.0,52.0,-100.00,WSW,258,3.0,8.0,82,0.00,,,0.72,85.000000,,2013-09-11 02:32:00,
2013-09-10 20:12:00,54.0,47.0,-100.00,WSW,255,2.0,5.0,77,0.00,,,0.72,1.000000,,2013-09-11 03:12:00,
2013-09-10 20:22:00,54.0,47.0,-100.00,WSW,255,2.0,5.0,77,0.00,,,0.72,1.000000,,2013-09-11 03:22:00,
2013-09-10 20:34:00,54.0,47.0,-100.00,WSW,255,2.0,5.0,77,0.00,,,0.72,1.000000,,2013-09-11 03:34:00,
2013-09-10 21:14:00,53.0,47.0,-100.00,West,275,5.0,9.0,81,0.00,,,0.72,0.000000,,2013-09-11 04:14:00,
2013-09-10 21:24:00,53.0,47.0,-100.00,West,275,5.0,9.0,81,0.00,,,0.72,0.000000,,2013-09-11 04:24:00,
2013-09-10 21:33:00,53.0,47.0,-100.00,West,275,5.0,9.0,81,0.00,,,0.72,0.000000,,2013-09-11 04:33:00,
2013-09-10 22:12:00,52.0,48.0,-100.00,West,260,5.0,7.0,86,0.00,,,0.72,0.000000,,2013-09-11 05:12:00,
2013-09-10 22:22:00,52.0,48.0,-100.00,West,260,5.0,7.0,86,0.00,,,0.72,0.000000,,2013-09-11 05:22:00,
2013-09-10 22:33:00,52.0,48.0,-100.00,West,260,5.0,7.0,86,0.00,,,0.72,0.000000,,2013-09-11 05:33:00,
2013-09-10 23:12:00,51.0,48.0,-100.00,WSW,253,4.0,7.0,89,0.00,,,0.72,0.000000,,2013-09-11 06:12:00,
2013-09-10 23:21:00,51.0,48.0,-100.00,WSW,253,4.0,7.0,89,0.00,,,0.72,0.000000,,2013-09-11 06:21:00,
2013-09-10 23:32:00,51.0,48.0,-100.00,WSW,253,4.0,7.0,89,0.00,,,0.72,0.000000,,2013-09-11 06:32:00,